Retour au catalogue

TITAN 3C TRANSTAGE R/B

ActifMEO
NORAD 11560·ROCKET BODY·🇺🇸 United States

Lancé Oct 1, 1979 depuis Cape Canaveral Space Force Station

Loading…

Prochains Passages (prochaines 24 heures)

TLE

FraisSource: Space-Track

Époque: Sep 14, 2026, 13:14 UTC

1 11560U 79086C   26257.55204328 -.00000036  00000-0  00000-0 0  9994
2 11560   5.9060  13.1267 1293432 127.5214 245.0206  0.99682009 27136

Suivez TITAN 3C TRANSTAGE R/B en temps réel avec AllMySat

Download on the App Store